Content
SEND FEEDBACK

Daily
Averages
Monthly
Summary
United States of America

DAUPHIN ISLAND, ALABAMA


Home > North America > United States > Alabama
Elevation: 0 feet     Latitude: 30 15N     Longitude: 088 05W

WEATHER
 
SELECT A DAY
Number of Records: 51,045;   Date Range: 6/6/11 - 10/24/14
 
SHARE

PRINT THIS DATA

[ ← Previous Day ]
WEATHER ALMANAC - SEPTEMBER 2, 2014
[ Next Day → ]
[ °C ]   °F
Weather ElementAverageHighLow
Temperature80.4 °F87.8 °F (10:55 am)73.4 °F (12:15 am)
Dewpoint74.3 °F77 °F (7:55 am)71.6 °F (12:15 am)
Humidity82.8 %100 % (2:55 am)58 % (10:55 am)
Barometer30.04 in30.09 in (10:35 am)29.98 in (4:55 pm)
Wind Speed2.5 mph11.5 mph (10:55 am)
Wind Gust17.3 mph (11:35 am)
Weather ElementAverage
Visibility9.9 mi
Wind DirectionENE (76.3 °)

Weather ElementTotal
Precipitation0.08 in
Cooling Degree Days15.6 (Base 65)
Growing Degree Days30.6 (Base 50)
Averaged from 71 records on September 2, 2014
WEATHER CONDITIONS BREAKOUT
WIND DIRECTION BREAKOUT
WEATHER BY HOUR - SEPTEMBER 2, 2014
[ °C ]   °F
Local TimeTemperatureDewpointHumidityBarometerVisibilityWind DirectionWind SpeedGust SpeedPrecipitationEventsConditions
12:15 AM73.4 °F73.4 °F100 %30.04 in10.0 miCalmClear
12:35 AM75.2 °F73.4 °F94 %30.04 in10.0 miCalmClear
12:55 AM75.2 °F73.4 °F94 %30.04 in7.0 miCalmClear
1:15 AM77.0 °F73.4 °F89 %30.03 in10.0 miCalmClear
1:35 AM75.2 °F73.4 °F94 %30.03 in7.0 miCalmScattered Clouds
1:55 AM75.2 °F75.2 °F100 %30.02 in10.0 miCalmScattered Clouds
2:15 AM75.2 °F73.4 °F94 %30.02 in10.0 miCalmScattered Clouds
2:35 AM75.2 °F73.4 °F94 %30.02 in10.0 miCalmClear
2:55 AM77.0 °F73.4 °F89 %30.02 in10.0 miCalmClear
3:15 AM75.2 °F73.4 °F94 %30.02 in10.0 miCalmClear
3:35 AM73.4 °F73.4 °F100 %30.02 in10.0 miCalmClear
3:55 AM73.4 °F73.4 °F100 %30.03 in10.0 miCalmClear
4:15 AM73.4 °F73.4 °F100 %30.04 in10.0 miCalmScattered Clouds
4:35 AM73.4 °F73.4 °F100 %30.04 in10.0 miCalmMostly Cloudy
4:55 AM73.4 °F73.4 °F100 %30.04 in10.0 miCalmScattered Clouds
5:15 AM73.4 °F73.4 °F100 %30.04 in10.0 miCalmClear
5:35 AM73.4 °F73.4 °F100 %30.04 in10.0 miCalmClear
5:55 AM73.4 °F73.4 °F100 %30.04 in10.0 miCalmScattered Clouds
6:15 AM73.4 °F73.4 °F100 %30.05 in10.0 miCalmScattered Clouds
6:35 AM73.4 °F73.4 °F100 %30.06 in10.0 miCalmClear
6:55 AM73.4 °F73.4 °F100 %30.07 in10.0 miCalmScattered Clouds
7:15 AM77.0 °F73.4 °F89 %30.07 in10.0 miCalmClear
7:35 AM78.8 °F75.2 °F89 %30.08 in10.0 miCalmMostly Cloudy
7:55 AM80.6 °F77.0 °F89 %30.09 in10.0 miCalmRainLight Rain
8:15 AM80.6 °F77.0 °F89 %30.09 in10.0 miCalmScattered Clouds
8:35 AM82.4 °F77.0 °F84 %30.09 in10.0 miNE (50°)4.6 mphClear
8:55 AM84.2 °F77.0 °F79 %30.09 in10.0 miCalmScattered Clouds
9:15 AM86.0 °F73.4 °F66 %30.09 in10.0 miCalmOvercast
9:35 AM82.4 °F77.0 °F84 %30.09 in10.0 miENE (70°)3.5 mph0.04 inOvercast
9:55 AM82.4 °F73.4 °F74 %30.09 in10.0 miSouth (190°)4.6 mph0.04 inScattered Clouds
10:15 AM86.0 °F75.2 °F70 %30.08 in10.0 miSW (220°)4.6 mphScattered Clouds
10:35 AM86.0 °F75.2 °F70 %30.09 in10.0 miSSW (210°)3.5 mphScattered Clouds
10:55 AM86.0 °F73.4 °F66 %30.09 in10.0 miSouth (180°)5.8 mphMostly Cloudy
11:15 AM86.0 °F71.6 °F62 %30.09 in10.0 miSW (230°)5.8 mphScattered Clouds
11:35 AM87.8 °F73.4 °F62 %30.09 in10.0 miSouth (190°)5.8 mphScattered Clouds
11:55 AM86.0 °F73.4 °F66 %30.08 in10.0 miSouth (180°)6.9 mphScattered Clouds
12:15 PM87.8 °F73.4 °F62 %30.08 in10.0 miSouth (180°)8.1 mphMostly Cloudy
12:35 PM87.8 °F71.6 °F58 %30.07 in10.0 miSouth (170°)5.8 mphScattered Clouds
12:55 PM87.8 °F71.6 °F58 %30.06 in10.0 miSouth (190°)8.1 mphScattered Clouds
1:15 PM87.8 °F73.4 °F62 %30.06 in10.0 miSouth (180°)10.4 mph16.1 mphClear
1:35 PM87.8 °F73.4 °F62 %30.05 in10.0 miSouth (180°)9.2 mph16.1 mphClear
1:55 PM87.8 °F73.4 °F62 %30.05 in10.0 miSouth (180°)11.5 mph17.3 mphScattered Clouds
2:15 PM87.8 °F73.4 °F62 %30.06 in10.0 miSouth (190°)6.9 mph10.4 mphScattered Clouds
2:35 PM86.0 °F73.4 °F66 %30.04 in10.0 miSSW (200°)5.8 mphClear
2:55 PM84.2 °F73.4 °F70 %30.02 in10.0 miSouth (190°)6.9 mphClear
3:15 PM84.2 °F75.2 °F74 %30.01 in10.0 miSouth (180°)8.1 mphClear
3:35 PM84.2 °F75.2 °F74 %30.01 in10.0 miSouth (180°)9.2 mphScattered Clouds
3:55 PM84.2 °F75.2 °F74 %30.01 in10.0 miSouth (190°)4.6 mphScattered Clouds
4:15 PM82.4 °F75.2 °F79 %30.02 in10.0 miSSW (210°)4.6 mphScattered Clouds
4:35 PM82.4 °F75.2 °F79 %30.02 in10.0 miSouth (190°)4.6 mphClear
4:55 PM82.4 °F75.2 °F79 %30.01 in10.0 miSW (220°)3.5 mphClear
5:15 PM82.4 °F75.2 °F79 %30.01 in10.0 miSouth (190°)4.6 mphClear
5:55 PM82.4 °F75.2 °F79 %29.98 in10.0 miSW (220°)4.6 mphScattered Clouds
6:15 PM82.4 °F75.2 °F79 %29.98 in10.0 miSouth (190°)3.5 mphScattered Clouds
6:35 PM82.4 °F75.2 °F79 %29.98 in10.0 miSouth (190°)8.1 mphScattered Clouds
6:55 PM82.4 °F75.2 °F79 %30.00 in10.0 miCalmScattered Clouds
7:15 PM82.4 °F75.2 °F79 %30.01 in10.0 miCalmScattered Clouds
7:35 PM80.6 °F75.2 °F84 %30.01 in10.0 miCalmScattered Clouds
7:55 PM80.6 °F73.4 °F79 %30.02 in10.0 miCalmScattered Clouds
8:15 PM80.6 °F73.4 °F79 %30.02 in10.0 miCalmScattered Clouds
8:35 PM80.6 °F73.4 °F79 %30.02 in10.0 miCalmScattered Clouds
8:55 PM80.6 °F75.2 °F84 %30.04 in10.0 miCalmScattered Clouds
9:15 PM80.6 °F75.2 °F84 %30.04 in10.0 miCalmScattered Clouds
9:35 PM80.6 °F75.2 °F84 %30.04 in10.0 miCalmScattered Clouds
9:55 PM78.8 °F75.2 °F89 %30.05 in10.0 miCalmScattered Clouds
10:15 PM78.8 °F77.0 °F94 %30.04 in10.0 miCalmClear
10:35 PM78.8 °F75.2 °F89 %30.04 in10.0 miCalmMostly Cloudy
10:55 PM78.8 °F75.2 °F89 %30.04 in10.0 miCalmScattered Clouds
11:15 PM78.8 °F75.2 °F89 %30.04 in10.0 miCalmMostly Cloudy
11:35 PM78.8 °F75.2 °F89 %30.03 in10.0 miWest (280°)3.5 mphMostly Cloudy
11:55 PM78.8 °F75.2 °F89 %30.03 in10.0 miCalmScattered Clouds
Hourly data recorded from KCQF, located miles away from Dauphin Island, Alabama







STORIES FROM OUR PARTNERS